Previsão horária em Aberdare

Hoje, 12 Abril, Segunda-feira

Tempo Temperatura Precipitação Vento Pressão Humidade
00:00 -1°C° 0 mm 1 m/s 735 mmHg 79%
01:00 -2°C° 0.1 mm 2 m/s 735 mmHg 82%
02:00 -2°C° 0.1 mm 2 m/s 735 mmHg 85%
03:00 -2°C° 0.1 mm 2 m/s 735 mmHg 89%
04:00 -1°C° 0.2 mm 3 m/s 735 mmHg 91%
05:00 0°C° 0.2 mm 3 m/s 735 mmHg 93%
06:00 +1°C° 0 mm 3 m/s 735 mmHg 94%
07:00 +1°C° 0.1 mm 3 m/s 736 mmHg 91%
08:00 +2°C° 0.1 mm 3 m/s 736 mmHg 88%
09:00 +2°C° 0.1 mm 3 m/s 736 mmHg 85%
10:00 +3°C° 0 mm 3 m/s 737 mmHg 79%
11:00 +3°C° 0 mm 3 m/s 737 mmHg 74%
12:00 +4°C° 0 mm 3 m/s 738 mmHg 68%
13:00 +4°C° 0 mm 3 m/s 738 mmHg 67%
14:00 +4°C° 0 mm 3 m/s 738 mmHg 66%
15:00 +5°C° 0 mm 3 m/s 738 mmHg 65%
16:00 +5°C° 0 mm 2 m/s 738 mmHg 69%
17:00 +5°C° 0 mm 2 m/s 738 mmHg 73%
18:00 +4°C° 0 mm 2 m/s 738 mmHg 77%
19:00 +3°C° 0 mm 2 m/s 738 mmHg 80%
20:00 +2°C° 0 mm 1 m/s 739 mmHg 84%
21:00 +1°C° 0 mm 1 m/s 739 mmHg 87%
22:00 +1°C° 0 mm 1 m/s 739 mmHg 87%
23:00 +1°C° 0 mm 1 m/s 739 mmHg 88%

Amanhã, 13 Abril, Terça-feira

Tempo Temperatura Precipitação Vento Pressão Humidade
00:00 0°C° 0 mm 1 m/s 739 mmHg 88%
01:00 0°C° 0 mm 1 m/s 739 mmHg 87%
02:00 -1°C° 0 mm 0 m/s 739 mmHg 87%
03:00 -1°C° 0 mm 0 m/s 739 mmHg 86%
04:00 0°C° 0 mm 0 m/s 739 mmHg 85%
05:00 0°C° 0 mm 0 m/s 739 mmHg 85%
06:00 +1°C° 0 mm 0 m/s 739 mmHg 84%
07:00 +2°C° 0 mm 0 m/s 740 mmHg 83%
08:00 +3°C° 0 mm 0 m/s 740 mmHg 81%
09:00 +4°C° 0 mm 0 m/s 740 mmHg 79%
10:00 +6°C° 0 mm 1 m/s 740 mmHg 77%
11:00 +7°C° 0 mm 1 m/s 740 mmHg 75%
12:00 +8°C° 0 mm 1 m/s 740 mmHg 73%
13:00 +8°C° 0.2 mm 1 m/s 740 mmHg 73%
14:00 +7°C° 0.2 mm 2 m/s 740 mmHg 72%
15:00 +8°C° 0.2 mm 2 m/s 739 mmHg 71%
16:00 +7°C° 0.1 mm 2 m/s 739 mmHg 75%
17:00 +7°C° 0.1 mm 2 m/s 739 mmHg 78%
18:00 +7°C° 0.1 mm 1 m/s 739 mmHg 82%
19:00 +6°C° 0 mm 1 m/s 739 mmHg 84%
20:00 +5°C° 0 mm 1 m/s 739 mmHg 86%
21:00 +3°C° 0 mm 1 m/s 740 mmHg 88%
22:00 +3°C° 0 mm 1 m/s 740 mmHg 88%
23:00 +3°C° 0 mm 1 m/s 739 mmHg 87%

Depois de amanhã, 14 Abril, Quarta-feira

Tempo Temperatura Precipitação Vento Pressão Humidade
00:00 +3°C° 0 mm 1 m/s 739 mmHg 87%
01:00 +3°C° 0 mm 1 m/s 739 mmHg 87%
02:00 +3°C° 0 mm 1 m/s 739 mmHg 88%
03:00 +3°C° 0 mm 1 m/s 739 mmHg 88%
04:00 +2°C° 0 mm 1 m/s 739 mmHg 89%
05:00 +2°C° 0 mm 1 m/s 739 mmHg 90%
06:00 +1°C° 0 mm 2 m/s 739 mmHg 91%
07:00 +3°C° 0 mm 2 m/s 740 mmHg 85%
08:00 +4°C° 0 mm 2 m/s 740 mmHg 79%
09:00 +6°C° 0 mm 2 m/s 740 mmHg 73%
10:00 +7°C° 0 mm 2 m/s 740 mmHg 69%
11:00 +8°C° 0 mm 2 m/s 740 mmHg 65%
12:00 +9°C° 0 mm 3 m/s 740 mmHg 60%
13:00 +9°C° 0 mm 3 m/s 740 mmHg 61%
14:00 +8°C° 0 mm 2 m/s 740 mmHg 62%
15:00 +8°C° 0 mm 2 m/s 739 mmHg 63%
16:00 +8°C° 0 mm 2 m/s 739 mmHg 66%
17:00 +7°C° 0 mm 2 m/s 739 mmHg 69%
18:00 +8°C° 0 mm 1 m/s 739 mmHg 72%
19:00 +6°C° 0 mm 1 m/s 740 mmHg 75%
20:00 +5°C° 0 mm 1 m/s 740 mmHg 79%
21:00 +3°C° 0 mm 1 m/s 740 mmHg 82%
22:00 +3°C° 0 mm 1 m/s 740 mmHg 82%
23:00 +2°C° 0 mm 1 m/s 740 mmHg 83%

15 Abril, Quinta-feira

Tempo Temperatura Precipitação Vento Pressão Humidade
00:00 +2°C° 0 mm 1 m/s 740 mmHg 84%
01:00 +1°C° 0 mm 1 m/s 740 mmHg 84%
02:00 +1°C° 0 mm 1 m/s 740 mmHg 85%
03:00 +1°C° 0 mm 1 m/s 740 mmHg 85%
04:00 +1°C° 0 mm 1 m/s 740 mmHg 85%
05:00 -1°C° 0 mm 2 m/s 740 mmHg 86%
06:00 -2°C° 0 mm 2 m/s 740 mmHg 86%
07:00 +1°C° 0 mm 2 m/s 740 mmHg 80%
08:00 +2°C° 0 mm 3 m/s 740 mmHg 75%
09:00 +4°C° 0 mm 3 m/s 740 mmHg 69%
10:00 +5°C° 0 mm 3 m/s 740 mmHg 65%
11:00 +5°C° 0 mm 4 m/s 740 mmHg 60%
12:00 +6°C° 0 mm 4 m/s 740 mmHg 56%
13:00 +7°C° 0 mm 4 m/s 739 mmHg 54%
14:00 +7°C° 0 mm 4 m/s 739 mmHg 52%
15:00 +7°C° 0 mm 4 m/s 739 mmHg 51%
16:00 +6°C° 0 mm 4 m/s 738 mmHg 58%
17:00 +5°C° 0 mm 4 m/s 738 mmHg 65%
18:00 +4°C° 0 mm 4 m/s 738 mmHg 72%
19:00 +3°C° 0 mm 3 m/s 738 mmHg 76%
20:00 +1°C° 0 mm 3 m/s 738 mmHg 80%
21:00 -1°C° 0 mm 2 m/s 738 mmHg 85%
22:00 -1°C° 0 mm 2 m/s 738 mmHg 86%
23:00 -2°C° 0 mm 3 m/s 738 mmHg 88%

16 Abril, Sexta-feira

Tempo Temperatura Precipitação Vento Pressão Humidade
00:00 -2°C° 0 mm 3 m/s 738 mmHg 89%
01:00 -2°C° 0 mm 3 m/s 738 mmHg 90%
02:00 -3°C° 0 mm 2 m/s 738 mmHg 91%
03:00 -3°C° 0 mm 2 m/s 738 mmHg 91%
04:00 -3°C° 0 mm 2 m/s 738 mmHg 90%
05:00 -3°C° 0 mm 2 m/s 738 mmHg 89%
06:00 -3°C° 0 mm 2 m/s 739 mmHg 88%
07:00 -1°C° 0 mm 3 m/s 739 mmHg 77%
08:00 0°C° 0 mm 4 m/s 739 mmHg 66%
09:00 +3°C° 0 mm 4 m/s 739 mmHg 55%
10:00 +4°C° 0 mm 4 m/s 739 mmHg 52%
11:00 +5°C° 0 mm 4 m/s 739 mmHg 50%
12:00 +6°C° 0 mm 4 m/s 739 mmHg 48%
13:00 +6°C° 0 mm 4 m/s 739 mmHg 48%
14:00 +7°C° 0 mm 4 m/s 739 mmHg 48%
15:00 +7°C° 0 mm 4 m/s 738 mmHg 49%
16:00 +8°C° 0 mm 3 m/s 738 mmHg 55%
17:00 +7°C° 0 mm 2 m/s 738 mmHg 61%
18:00 +6°C° 0 mm 2 m/s 738 mmHg 67%
19:00 +5°C° 0 mm 2 m/s 738 mmHg 71%
20:00 +3°C° 0 mm 2 m/s 738 mmHg 74%
21:00 +2°C° 0 mm 2 m/s 738 mmHg 78%
22:00 +1°C° 0 mm 2 m/s 738 mmHg 81%
23:00 -1°C° 0 mm 2 m/s 738 mmHg 83%

17 Abril, Sábado

Tempo Temperatura Precipitação Vento Pressão Humidade
00:00 -1°C° 0 mm 2 m/s 738 mmHg 86%
01:00 -1°C° 0 mm 2 m/s 738 mmHg 86%
02:00 -2°C° 0 mm 2 m/s 738 mmHg 87%
03:00 -2°C° 0 mm 2 m/s 738 mmHg 87%
04:00 -2°C° 0 mm 2 m/s 737 mmHg 86%
05:00 -2°C° 0 mm 2 m/s 737 mmHg 85%
06:00 -2°C° 0 mm 2 m/s 737 mmHg 84%
07:00 +1°C° 0 mm 2 m/s 737 mmHg 78%
08:00 +3°C° 0 mm 2 m/s 737 mmHg 72%
09:00 +5°C° 0 mm 2 m/s 737 mmHg 66%
10:00 +6°C° 0 mm 2 m/s 737 mmHg 62%
11:00 +7°C° 0 mm 2 m/s 737 mmHg 59%
12:00 +8°C° 0 mm 2 m/s 737 mmHg 55%
13:00 +8°C° 0 mm 2 m/s 737 mmHg 54%
14:00 +8°C° 0 mm 2 m/s 736 mmHg 54%
15:00 +8°C° 0 mm 2 m/s 736 mmHg 53%
16:00 +8°C° 0 mm 2 m/s 736 mmHg 58%
17:00 +8°C° 0 mm 1 m/s 736 mmHg 63%
18:00 +7°C° 0 mm 1 m/s 735 mmHg 68%
19:00 +6°C° 0 mm 1 m/s 735 mmHg 69%
20:00 +5°C° 0 mm 0 m/s 736 mmHg 70%
21:00 +4°C° 0 mm 0 m/s 736 mmHg 71%
22:00 +3°C° 0 mm 0 m/s 735 mmHg 72%
23:00 +2°C° 0 mm 0 m/s 735 mmHg 74%
Mostrar mais